STARLINK-32420, 61931

Orbit data source: Space-Track

STARLINK-32420, 61931 is a payload satellite owned by SpaceX/Seattle (US) in LEO that was launched on Mon, 11 Nov 2024 UTC via an FALCON 9 launch vehicle from the Air Force Eastern Test Range (AFETR). Payload-class satellites include a variety of spacecraft equipped with specific instruments for various scientific and technological missions. These include communications satellites like Starlink; space stations such as the ISS; scientific satellites like the Hubble; Earth observation satellites from companies like Planet Labs, Umbra, and HawkEye 360; GPS; miniature CubeSats for education and research; and military/defense satellites.

Loading next visibility...
Identifier
61931, 2024-207V
Orbit
LEO
Country
Flag of USUS
Related business
Manufacturer
SpaceX/Seattle
Mission
Operational Commercial Communications
Bus & Motor
STARLINK V2M, Unknown motor
Mass
730 kg wet, ~700 kg dry
Launch date (UTC)
2024-11-11 (1 year ago)
Launch vehicle
FALCON 9
Launch site
Air Force Eastern Test Range (AFETR)
Object type
Payload
Rocket body
Debris
Shape & HBR
Box + 2 Pan, 17.7 m
Radar Cross Section
33.884 m², Large (>1 m²)

Expand to show TLE details & history
Last TLE update: 2 days ago

TLE from 2 days ago
0 STARLINK-32420
1 61931U 24207V   25312.51721515  .00071797  00000-0  25876-2 0  9996
2 61931  43.0030 245.7709 0003159 281.1370  78.9126 15.27649999 56191
Epoch: 2025-11-08T12:24Z
TLE epoch observation values (Epoch: 2025-11-08T12:24:47.388Z)
Latitude
-0.00007°
Longitude
11.62768°
Altitude
482.199 km
Speed
7.626 km/s
True Right ascension
16h 23m 04s
True Declination
0° 00' 00"
Sunlit
Object was in daylight at epoch
Visualization orbit readout
Latitude
Unknown
Longitude
Unknown
Altitude
Unknown
Speed
Unknown
Apparent Right ascension
Unknown
Apparent Declination
Unknown
Sunlit
N/A
Visualization observer readout
Local Sidereal Time
02:55:49
Azimuth
Unknown
Elevation
Unknown
Doppler factor
Unknown
Orbital elements
Apogee altitude
486.952 km
Perigee altitude
482.616 km
Semi-major axis
6,862.921 km
Eccentricity
0.00032
Inclination
43.003°
RAAN
245.7709°
Arg. of periapsis
281.137°
True anomaly
78.94813°
Mean anomaly
78.9126°
Eccentric anomaly
78.93036°
Mean motion
3.81751 °/min
Orbital period
94.3 mins
BSTAR
0.0025876
Loading maneuver chart data...
Computing Atmospheric mass density...
Loading historical data...
Loading historical data...
Loading historical data...
Loading historical data...
Loading historical data...
Loading historical data...
Loading historical data...

Documentation

Showing up to 5 results
|